Location: Canet
(43.3261°N, 5.3723°E)
Time: 02:38:33
(UTC+00:00)

Envisat - Pass Details

Date: 05 October 2021
Orbit: 764 x 766 km, 98.2° (Epoch: 23 October)

Event Time Altitude Azimuth Distance (km) Brightness Sun altitude
Rises 04:25:10 0° 18° (NNE) 3,240 6.6 -14.5°
Reaches altitude 10° 04:27:33 10° 23° (NNE) 2,309 5.9 -14.1°
Maximum altitude 04:32:30 50° 99° (E) 965 4.0 -13.2°
Drops below altitude 10° 04:37:24 10° 175° (S) 2,293 5.5 -12.3°
Sets 04:39:46 0° 181° (S) 3,214 6.2 -11.9°
